TimeMST,TemperatureF,Dew PointF,Humidity,Sea Level PressureIn,VisibilityMPH,Wind Direction,Wind SpeedMPH,Gust SpeedMPH,PrecipitationIn,Events,Conditions,WindDirDegrees,DateUTC
12:04 AM,-5.8,-9.4,84,30.31,1.5,South,3.5,-,N/A,,Mostly Cloudy,180,2013-01-02 07:04:00
12:06 AM,-5.8,-9.4,84,30.31,0.5,Calm,Calm,-,N/A,Fog,Light Freezing Fog,0,2013-01-02 07:06:00
12:11 AM,-9.4,-13.0,84,30.31,0.2,Calm,Calm,-,N/A,Fog,Light Freezing Fog,0,2013-01-02 07:11:00
12:13 AM,-9.4,-14.8,77,30.31,0.5,Calm,Calm,-,N/A,,Haze,0,2013-01-02 07:13:00
12:16 AM,-11.2,-16.6,77,30.31,0.8,Calm,Calm,-,N/A,,Haze,0,2013-01-02 07:16:00
12:26 AM,-16.6,-22.0,76,30.31,4.0,Calm,Calm,-,N/A,,Haze,0,2013-01-02 07:26:00
12:42 AM,-14.8,-20.2,77,30.31,10.0,Calm,Calm,-,N/A,,Mostly Cloudy,0,2013-01-02 07:42:00
12:56 AM,-18.9,-24.9,74,30.64,1.8,Calm,Calm,-,N/A,,Haze,0,2013-01-02 07:56:00
12:58 AM,-18.4,-25.6,70,30.30,0.8,Calm,Calm,-,N/A,,Haze,0,2013-01-02 07:58:00
1:02 AM,-20.2,-25.6,76,30.30,0.2,Calm,Calm,-,N/A,,Haze,0,2013-01-02 08:02:00
1:16 AM,-18.4,-25.6,70,30.31,0.8,Calm,Calm,-,N/A,,Haze,0,2013-01-02 08:16:00
1:19 AM,-18.4,-25.6,70,30.31,1.2,Calm,Calm,-,N/A,,Haze,0,2013-01-02 08:19:00
1:21 AM,-18.4,-25.6,70,30.31,3.0,Calm,Calm,-,N/A,,Haze,0,2013-01-02 08:21:00
1:27 AM,-18.4,-23.8,76,30.31,4.0,Calm,Calm,-,N/A,,Haze,0,2013-01-02 08:27:00
1:56 AM,-9.9,-15.0,78,30.59,10.0,Calm,Calm,-,N/A,,Partly Cloudy,0,2013-01-02 08:56:00
2:08 AM,-9.4,-14.8,77,30.31,10.0,Calm,Calm,-,N/A,,Mostly Cloudy,0,2013-01-02 09:08:00
2:32 AM,-7.6,-13.0,77,30.32,0.8,Calm,Calm,-,N/A,,Haze,0,2013-01-02 09:32:00
2:35 AM,-7.6,-11.2,84,30.32,0.2,Calm,Calm,-,N/A,,Haze,0,2013-01-02 09:35:00
2:46 AM,-7.6,-11.2,84,30.32,0.2,South,3.5,-,N/A,,Haze,180,2013-01-02 09:46:00
2:56 AM,-8.0,-13.0,79,30.59,0.2,South,3.5,-,N/A,,Haze,190,2013-01-02 09:56:00
3:04 AM,-9.4,-14.8,77,30.32,0.2,South,3.5,-,N/A,,Haze,170,2013-01-02 10:04:00
3:23 AM,-9.4,-14.8,77,30.32,0.8,Calm,Calm,-,N/A,,Haze,0,2013-01-02 10:23:00
3:25 AM,-9.4,-14.8,77,30.32,1.5,Calm,Calm,-,N/A,,Haze,0,2013-01-02 10:25:00
3:32 AM,-7.6,-13.0,77,30.31,10.0,Calm,Calm,-,N/A,,Overcast,0,2013-01-02 10:32:00
3:56 AM,-6.0,-10.8,79,30.58,10.0,Calm,Calm,-,N/A,,Overcast,0,2013-01-02 10:56:00
4:18 AM,-4.0,-7.6,85,30.32,10.0,Calm,Calm,-,N/A,,Overcast,0,2013-01-02 11:18:00
5:04 AM,-2.2,-5.8,85,30.33,10.0,Calm,Calm,-,N/A,,Overcast,0,2013-01-02 12:04:00
5:11 AM,-2.2,-5.8,85,30.32,10.0,Calm,Calm,-,N/A,,Overcast,0,2013-01-02 12:11:00
5:24 AM,-2.2,-7.6,78,30.33,10.0,Calm,Calm,-,N/A,,Overcast,0,2013-01-02 12:24:00
5:56 AM,-2.9,-8.0,79,30.58,10.0,Calm,Calm,-,0.00,,Overcast,0,2013-01-02 12:56:00
6:56 AM,-2.9,-8.0,79,30.60,10.0,Calm,Calm,-,N/A,,Overcast,0,2013-01-02 13:56:00
7:06 AM,-5.8,-9.4,84,30.33,10.0,Calm,Calm,-,N/A,,Overcast,0,2013-01-02 14:06:00
7:19 AM,-5.8,-11.2,77,30.32,10.0,Calm,Calm,-,N/A,,Overcast,0,2013-01-02 14:19:00
7:56 AM,-13.0,-17.9,79,30.73,10.0,Calm,Calm,-,N/A,,Mostly Cloudy,0,2013-01-02 14:56:00
8:05 AM,-11.2,-16.6,77,30.32,10.0,Calm,Calm,-,N/A,,Scattered Clouds,0,2013-01-02 15:05:00
8:56 AM,-15.0,-19.8,79,30.77,10.0,Calm,Calm,-,N/A,,Clear,0,2013-01-02 15:56:00
9:56 AM,-0.9,-6.0,79,30.74,10.0,Calm,Calm,-,N/A,,Clear,0,2013-01-02 16:56:00
10:56 AM,3.0,-0.9,84,30.71,10.0,Calm,Calm,-,0.00,,Clear,0,2013-01-02 17:56:00
11:56 AM,3.0,-0.9,84,30.65,10.0,West,3.5,-,N/A,,Clear,260,2013-01-02 18:56:00
12:56 PM,7.2,3.0,83,30.68,10.0,Calm,Calm,-,N/A,,Clear,0,2013-01-02 19:56:00
1:56 PM,9.1,2.1,73,30.61,10.0,Calm,Calm,-,N/A,,Clear,0,2013-01-02 20:56:00
2:56 PM,8.1,-1.8,64,30.61,10.0,Calm,Calm,-,N/A,,Clear,0,2013-01-02 21:56:00
3:56 PM,1.0,-8.0,66,30.65,10.0,Calm,Calm,-,N/A,,Clear,0,2013-01-02 22:56:00
4:56 PM,-2.9,-8.0,79,30.65,10.0,Calm,Calm,-,N/A,,Clear,0,2013-01-02 23:56:00
6:56 PM,-6.9,-11.9,79,30.69,10.0,ESE,5.8,-,N/A,,Clear,120,2013-01-03 01:56:00
7:56 PM,-8.9,-13.9,79,30.75,10.0,ESE,5.8,-,N/A,,Clear,110,2013-01-03 02:56:00
8:56 PM,-13.9,-19.8,75,30.78,10.0,Calm,Calm,-,N/A,,Clear,0,2013-01-03 03:56:00
9:56 PM,-8.9,-13.9,79,30.69,10.0,SW,3.5,-,N/A,,Clear,220,2013-01-03 04:56:00
10:56 PM,-10.8,-15.9,78,30.68,10.0,Calm,Calm,-,N/A,,Clear,0,2013-01-03 05:56:00
11:56 PM,-8.9,-13.9,79,30.66,10.0,Calm,Calm,-,N/A,,Clear,0,2013-01-03 06:56:00